#timestamp,LO_Frequency,Hit,StdDev 
1594702815.3,286046997.5,P
1594702835.1,286046995.9,P
1594702855.9,286046994.7,P
1594702875.7,286046993.5,Y
1594702895.5,286046997.8,P
1594702915.4,286046995.8,P
1594702935.2,286046993.7,P
1594702955.1,286046995.0,Y
1594702956.0,286046995.0,P
1594702975.8,286047000.1,N
1594702995.6,286047002.2,N
1594703015.5,286047003.6,N
1594703035.3,286047003.3,N
1594703055.2,286047005.9,N
1594703075.9,286047004.4,N
1594703095.7,286047003.0,N
1594703115.6,286047005.1,N
1594703135.4,286047005.3,N
1594703155.2,286047005.8,N
1594703175.1,286047005.6,N
1594703176.0,286047005.6,N
1594703195.8,286047003.8,N
1594703215.7,286047005.0,N
1594703235.5,286047005.8,N
1594703255.3,286047008.5,N
1594703275.2,286047008.4,N
1594703295.0,286047010.5,Y
1594703295.9,286047010.5,P
1594703315.8,286047004.2,N
1594703335.6,286047000.7,N
1594703355.4,286046996.9,N
1594703375.3,286046998.4,N
1594703395.1,286047000.2,N
1594703415.9,286047000.7,N
1594703465.7,286047000.9,E
1594703475.7,286046998.7,N
1594703495.5,286046996.8,P
1594703515.3,286046996.1,P
1594703535.2,286046993.9,Y
1594703555.0,286046996.1,P
1594703555.9,286046996.1,P
1594703575.7,286046996.2,P
1594703595.6,286046996.4,Y
1594703615.4,286046999.2,P
1594703635.3,286046996.8,N
1594703655.1,286046997.5,N
1594703675.8,286046994.9,Y
1594703695.7,286047000.4,P
1594703715.5,286047000.4,N
1594703735.4,286047003.6,N
1594703755.2,286047003.4,N
1594703775.0,286047003.6,N
1594703776.0,286047003.6,N
1594703795.8,286047001.5,N
1594703815.6,286047003.7,N
1594703835.5,286047003.5,N
1594703855.3,286047001.4,N
1594703875.1,286047003.8,N
1594703895.9,286047005.9,Y
1594703915.7,286047002.1,P
1594703935.6,286047000.8,P
1594703955.4,286047000.2,N
1594703975.3,286047002.4,N
1594703995.1,286047000.6,N
1594703996.0,286047000.6,N
1594704015.8,286047002.2,N
1594704035.7,286047002.4,N
1594704055.5,286047001.8,N
1594704075.3,286047001.4,N
1594704095.2,286047001.0,N
1594704115.0,286047001.2,N
1594704115.9,286047001.2,N
1594704135.8,286047000.4,N
1594704155.6,286047001.1,N
1594704175.5,286047002.7,Y
1594704195.3,286046999.9,P
1594704215.1,286047001.9,N
1594704235.9,286046998.1,N
1594704255.7,286046999.2,N
1594704275.6,286046998.5,N
1594704295.4,286046998.5,N
1594704315.2,286046998.1,N
1594704335.1,286047000.5,N
1594704336.0,286047000.5,N
1594704355.8,286047001.2,N
1594704375.7,286047001.2,N
1594704395.5,286046998.5,N
1594704415.4,286046996.5,N
1594704435.2,286046999.5,N
1594704455.0,286046999.5,N
1594704455.9,286046999.5,N
1594704475.8,286046999.2,N
1594704495.6,286046998.6,N
1594704515.4,286046999.4,N
1594704535.3,286046998.9,N
1594704555.1,286046998.8,N
1594704575.9,286047000.9,N
1594704595.7,286047000.3,N
1594704615.6,286047000.7,N
1594704635.4,286047001.2,N
1594704655.3,286047000.2,N
1594704675.1,286047003.9,Y
1594704676.0,286047003.9,P
1594704695.8,286047002.7,N
1594704715.7,286046998.5,N
1594704735.5,286047002.2,N
1594704755.3,286047002.4,N
1594704775.2,286047001.0,N
1594704795.0,286046999.3,N
1594704795.9,286046999.3,N
1594704815.8,286047000.4,N
1594704835.6,286047000.8,N
1594704855.4,286046998.5,N
1594704875.3,286046999.2,N
1594704895.1,286046998.6,N
1594704915.9,286047000.5,N
1594704935.7,286047001.0,N
1594704955.5,286047000.5,N
1594704975.4,286047000.0,N
1594704995.2,286047000.2,N
1594705015.0,286046999.2,N
1594705015.9,286046999.2,N
1594705035.8,286046999.5,N
1594705055.6,286046998.6,N
1594705075.5,286046999.2,N
1594705095.3,286046999.4,N
1594705115.1,286046998.4,N
1594705135.9,286047000.8,N
1594705155.7,286047001.2,N
1594705175.6,286047001.1,N
1594705195.4,286046998.1,N
1594705215.2,286046999.1,N
1594705235.1,286046998.4,N
1594705236.0,286046998.4,N
1594705255.8,286046999.4,N
1594705275.7,286046999.5,N
1594705295.5,286046996.5,Y
1594705315.3,286046998.1,P
1594705335.2,286047001.0,N
1594705355.0,286046998.2,N
1594705355.9,286046998.2,N
1594705375.8,286047002.4,N
1594705395.6,286047004.4,N
1594705415.4,286047002.7,N
1594705435.3,286047001.0,N
1594705455.1,286047002.5,N
1594705475.9,286047002.4,N
1594705495.7,286046999.8,N
1594705515.5,286047002.6,N
1594705535.4,286047000.9,N
1594705555.2,286047001.0,N
1594705575.0,286046998.1,N
1594705575.9,286046998.1,N
1594705595.8,286046998.5,N
1594705615.6,286047001.0,N
1594705635.5,286047002.7,N
1594705655.3,286047002.8,N
1594705675.1,286046999.9,N
1594705695.9,286046999.7,N
1594705715.7,286047002.6,N
1594705735.6,286047001.7,N
1594705755.4,286047004.1,N
1594705775.2,286046999.7,N
1594705795.1,286046998.2,N
1594705796.0,286046998.2,N
1594705815.8,286047000.3,N
1594705835.6,286047001.0,N
1594705855.5,286047002.7,N
1594705875.3,286046998.5,N
1594705895.2,286047000.1,N
1594705915.9,286047000.1,N
1594705935.7,286047001.4,N
1594705955.6,286047000.2,N
1594705975.4,286046998.1,N
1594705995.3,286046998.1,N
1594706015.1,286047001.5,N
1594706016.0,286047001.5,N
1594706035.8,286047003.3,N
1594706055.7,286047002.5,N
1594706075.5,286047002.4,N
1594706095.3,286046999.7,N
1594706115.2,286047001.1,N
1594706135.0,286047001.0,N
1594706135.9,286047001.0,N
1594706155.8,286047000.1,N
1594706175.6,286047002.1,N
1594706195.4,286047001.3,N
1594706215.3,286047003.6,N
1594706235.1,286047003.2,N
1594706255.9,286047006.0,Y
1594706275.7,286047005.8,P
1594706295.5,286047005.9,N
1594706315.4,286047005.0,N
1594706335.2,286047007.1,Y
1594706355.1,286047001.7,P
1594706356.0,286047001.7,N
1594706375.8,286047005.6,P
1594706395.6,286047001.5,N
